| time (UTC) | temp C | wind direction | speed KPH | gust KPH | rain 1hr cm | rain 24hr cm | rain mn cm | humidity % | barometer mb |
| 20260510135005 | 11 | 32 | 9.7 | 20.9 | 0.00 | 0.00 | 0.00 | 72 | 1015.5 |
| 20260510133003 | 11 | 48 | 9.7 | 20.9 | 0.00 | 0.00 | 0.00 | 72 | 1015.6 |
| 20260510132003 | 11 | 38 | 9.7 | 22.5 | 0.00 | 0.00 | 0.00 | 73 | 1015.6 |
| 20260510131003 | 11 | 46 | 9.7 | 22.5 | 0.00 | 0.00 | 0.00 | 73 | 1015.8 |
| 20260510130002 | 11 | 35 | 9.7 | 22.5 | 0.00 | 0.00 | 0.00 | 75 | 1015.8 |
| 20260510125003 | 11 | 50 | 9.7 | 27.4 | 0.00 | 0.00 | 0.00 | 75 | 1016.0 |
| 20260510124002 | 11 | 47 | 8.0 | 24.1 | 0.00 | 0.00 | 0.00 | 75 | 1016.0 |
| 20260510123003 | 11 | 47 | 9.7 | 25.7 | 0.00 | 0.00 | 0.00 | 75 | 1016.0 |
| 20260510122003 | 11 | 48 | 11.3 | 22.5 | 0.00 | 0.00 | 0.00 | 76 | 1016.1 |
| 20260510120003 | 11 | 47 | 9.7 | 27.4 | 0.00 | 0.00 | 0.00 | 77 | 1016.2 |
| 20260510115003 | 11 | 36 | 9.7 | 24.1 | 0.00 | 0.00 | 0.00 | 78 | 1016.3 |
| 20260510114003 | 11 | 63 | 9.7 | 24.1 | 0.00 | 0.00 | 0.00 | 78 | 1016.4 |
| 20260510113003 | 11 | 59 | 9.7 | 24.1 | 0.00 | 0.00 | 0.00 | 79 | 1016.5 |
| 20260510112003 | 11 | 41 | 11.3 | 22.5 | 0.00 | 0.00 | 0.00 | 80 | 1016.6 |
| 20260510111002 | 11 | 53 | 9.7 | 24.1 | 0.00 | 0.00 | 0.00 | 79 | 1016.7 |
| 20260510105003 | 11 | 41 | 11.3 | 24.1 | 0.00 | 0.00 | 0.00 | 78 | 1016.8 |
| 20260510103003 | 11 | 32 | 11.3 | 27.4 | 0.00 | 0.00 | 0.00 | 76 | 1016.7 |
| 20260510102003 | 11 | 46 | 12.9 | 30.6 | 0.00 | 0.00 | 0.00 | 76 | 1016.7 |
| 20260510100003 | 12 | 62 | 11.3 | 24.1 | 0.00 | 0.00 | 0.00 | 75 | 1016.8 |
| 20260510095003 | 11 | 66 | 12.9 | 29.0 | 0.00 | 0.00 | 0.00 | 76 | 1016.7 |
| 20260510094003 | 11 | 56 | 9.7 | 30.6 | 0.00 | 0.00 | 0.00 | 77 | 1016.8 |
| 20260510093003 | 12 | 53 | 12.9 | 27.4 | 0.00 | 0.00 | 0.00 | 79 | 1016.8 |
| 20260510092003 | 11 | 46 | 12.9 | 27.4 | 0.00 | 0.00 | 0.00 | 79 | 1016.9 |
| 20260510091002 | 11 | 47 | 12.9 | 25.7 | 0.00 | 0.00 | 0.00 | 78 | 1017.0 |
| 20260510090004 | 11 | 47 | 11.3 | 33.8 | 0.00 | 0.00 | 0.00 | 80 | 1017.2 |
| 20260510085003 | 10 | 45 | 9.7 | 35.4 | 0.00 | 0.00 | 0.00 | 80 | 1017.2 |
| 20260510084002 | 10 | 53 | 9.7 | 22.5 | 0.00 | 0.00 | 0.00 | 81 | 1017.3 |
| 20260510083002 | 10 | 40 | 9.7 | 22.5 | 0.00 | 0.00 | 0.00 | 81 | 1017.3 |
| 20260510082003 | 10 | 53 | 9.7 | 29.0 | 0.00 | 0.00 | 0.00 | 81 | 1017.3 |
| 20260510081004 | 10 | 58 | 11.3 | 30.6 | 0.00 | 0.00 | 0.00 | 81 | 1017.3 |
| 20260510080002 | 10 | 48 | 11.3 | 24.1 | 0.00 | 0.00 | 0.00 | 82 | 1017.3 |
| 20260510075002 | 10 | 41 | 11.3 | 27.4 | 0.00 | 0.00 | 0.00 | 83 | 1017.2 |
| 20260510074002 | 10 | 51 | 9.7 | 25.7 | 0.00 | 0.00 | 0.00 | 84 | 1017.3 |
| 20260510073002 | 10 | 34 | 8.0 | 25.7 | 0.00 | 0.00 | 0.00 | 84 | 1017.3 |
| 20260510072003 | 10 | 34 | 9.7 | 24.1 | 0.00 | 0.00 | 0.00 | 85 | 1017.3 |
| 20260510071003 | 10 | 32 | 9.7 | 25.7 | 0.00 | 0.00 | 0.00 | 85 | 1017.2 |
| 20260510070002 | 10 | 40 | 8.0 | 24.1 | 0.00 | 0.00 | 0.00 | 86 | 1017.2 |
| 20260510065002 | 10 | 37 | 9.7 | 24.1 | 0.00 | 0.00 | 0.00 | 86 | 1017.1 |
| 20260510064003 | 9 | 44 | 6.4 | 27.4 | 0.00 | 0.00 | 0.00 | 87 | 1017.1 |
| 20260510063003 | 9 | 43 | 6.4 | 17.7 | 0.00 | 0.00 | 0.00 | 87 | 1017.0 |
| 20260510062003 | 9 | 35 | 9.7 | 20.9 | 0.00 | 0.00 | 0.00 | 88 | 1017.0 |
| 20260510061004 | 9 | 28 | 8.0 | 24.1 | 0.00 | 0.00 | 0.00 | 88 | 1017.0 |
| 20260510060003 | 9 | 34 | 6.4 | 22.5 | 0.00 | 0.00 | 0.00 | 88 | 1016.9 |
| 20260510055002 | 8 | 45 | 8.0 | 19.3 | 0.00 | 0.00 | 0.00 | 89 | 1016.9 |
| 20260510054003 | 8 | 34 | 9.7 | 24.1 | 0.00 | 0.00 | 0.00 | 89 | 1016.9 |
| 20260510053003 | 8 | 27 | 9.7 | 25.7 | 0.00 | 0.00 | 0.00 | 89 | 1016.9 |
| 20260510052003 | 8 | 26 | 8.0 | 25.7 | 0.00 | 0.00 | 0.00 | 89 | 1016.9 |
| 20260510051004 | 8 | 21 | 4.8 | 16.1 | 0.00 | 0.00 | 0.00 | 90 | 1016.9 |
| 20260510050003 | 8 | 33 | 6.4 | 17.7 | 0.00 | 0.00 | 0.00 | 90 | 1016.9 |
| 20260510045003 | 8 | 37 | 6.4 | 17.7 | 0.00 | 0.00 | 0.00 | 90 | 1016.8 |
| 20260510044003 | 8 | 34 | 8.0 | 22.5 | 0.00 | 0.00 | 0.00 | 90 | 1016.9 |
| 20260510043002 | 8 | 38 | 9.7 | 16.1 | 0.00 | 0.00 | 0.00 | 90 | 1016.8 |
| 20260510042003 | 8 | 29 | 8.0 | 24.1 | 0.00 | 0.00 | 0.00 | 90 | 1016.9 |
| 20260510041004 | 8 | 28 | 8.0 | 19.3 | 0.00 | 0.00 | 0.00 | 90 | 1017.0 |
| 20260510040004 | 8 | 26 | 8.0 | 24.1 | 0.00 | 0.00 | 0.00 | 90 | 1017.0 |
| 20260510032003 | 8 | 29 | 6.4 | 19.3 | 0.00 | 0.00 | 0.00 | 90 | 1017.2 |
| 20260510031003 | 8 | 34 | 9.7 | 17.7 | 0.00 | 0.00 | 0.00 | 90 | 1017.2 |
| 20260510030003 | 8 | 31 | 8.0 | 22.5 | 0.00 | 0.00 | 0.00 | 91 | 1017.2 |
| 20260510025003 | 8 | 13 | 8.0 | 17.7 | 0.00 | 0.00 | 0.00 | 91 | 1017.3 |
| 20260510024003 | 8 | 29 | 8.0 | 19.3 | 0.00 | 0.00 | 0.00 | 91 | 1017.3 |
| 20260510023003 | 8 | 17 | 8.0 | 20.9 | 0.00 | 0.00 | 0.00 | 91 | 1017.4 |
| 20260510021002 | 8 | 25 | 4.8 | 16.1 | 0.00 | 0.00 | 0.00 | 91 | 1017.4 |
| 20260510020002 | 8 | 18 | 4.8 | 16.1 | 0.00 | 0.00 | 0.00 | 91 | 1017.5 |
| 20260510015003 | 8 | 30 | 6.4 | 16.1 | 0.00 | 0.00 | 0.00 | 91 | 1017.5 |
| 20260510014004 | 8 | 25 | 6.4 | 17.7 | 0.00 | 0.00 | 0.00 | 90 | 1017.6 |
| 20260510013003 | 8 | 20 | 6.4 | 16.1 | 0.00 | 0.00 | 0.00 | 90 | 1017.4 |
| 20260510012003 | 8 | 24 | 6.4 | 17.7 | 0.00 | 0.00 | 0.00 | 90 | 1017.3 |
| 20260510005003 | 9 | 24 | 6.4 | 16.1 | 0.00 | 0.00 | 0.00 | 88 | 1017.4 |
| 20260510003003 | 9 | 34 | 6.4 | 22.5 | 0.00 | 0.00 | 0.00 | 87 | 1017.4 |
| 20260510002002 | 10 | 27 | 6.4 | 19.3 | 0.00 | 0.00 | 0.00 | 86 | 1017.5 |
| 20260510001003 | 10 | 14 | 8.0 | 20.9 | 0.00 | 0.00 | 0.00 | 84 | 1017.4 |
| 20260510000003 | 10 | 20 | 8.0 | 17.7 | 0.00 | 0.00 | 0.00 | 80 | 1017.5 |
| 20260509234002 | 10 | 41 | 6.4 | 16.1 | 0.00 | 0.00 | 0.00 | 71 | 1017.5 |
| 20260509233003 | 11 | 38 | 6.4 | 20.9 | 0.00 | 0.00 | 0.00 | 68 | 1017.4 |
| 20260509232003 | 11 | 34 | 4.8 | 17.7 | 0.00 | 0.00 | 0.00 | 66 | 1017.4 |
| 20260509231002 | 11 | 30 | 4.8 | 16.1 | 0.00 | 0.00 | 0.00 | 67 | 1017.4 |
| 20260509230003 | 12 | 36 | 4.8 | 12.9 | 0.00 | 0.00 | 0.00 | 66 | 1017.4 |
| 20260509225002 | 12 | 54 | 3.2 | 17.7 | 0.00 | 0.00 | 0.00 | 66 | 1017.3 |
| 20260509224003 | 12 | 39 | 1.6 | 8.0 | 0.00 | 0.00 | 0.00 | 65 | 1017.4 |
| 20260509223003 | 12 | 57 | 3.2 | 11.3 | 0.00 | 0.00 | 0.00 | 64 | 1017.2 |
| 20260509222002 | 12 | 43 | 1.6 | 9.7 | 0.00 | 0.00 | 0.00 | 63 | 1017.2 |
| 20260509221003 | 12 | 50 | 0.0 | 6.4 | 0.00 | 0.00 | 0.00 | 62 | 1017.4 |
| 20260509220004 | 13 | 57 | 0.0 | 4.8 | 0.00 | 0.00 | 0.00 | 61 | 1017.4 |
| 20260509215003 | 13 | 60 | 1.6 | 8.0 | 0.00 | 0.00 | 0.00 | 60 | 1017.2 |
| 20260509213003 | 13 | 27 | 1.6 | 4.8 | 0.00 | 0.00 | 0.00 | 58 | 1017.0 |
| 20260509212002 | 13 | 27 | 1.6 | 4.8 | 0.00 | 0.00 | 0.00 | 57 | 1016.8 |
| 20260509211003 | 13 | 0 | 0.0 | 6.4 | 0.00 | 0.00 | 0.00 | 56 | 1016.8 |
| 20260509210003 | 14 | 107 | 0.0 | 3.2 | 0.00 | 0.00 | 0.00 | 55 | 1016.9 |
| 20260509205003 | 14 | 108 | 1.6 | 6.4 | 0.00 | 0.00 | 0.00 | 55 | 1016.8 |
| 20260509204003 | 14 | 115 | 1.6 | 4.8 | 0.00 | 0.00 | 0.00 | 54 | 1016.8 |
| 20260509203003 | 14 | 94 | 1.6 | 6.4 | 0.00 | 0.00 | 0.00 | 54 | 1016.6 |
| 20260509202002 | 15 | 79 | 1.6 | 8.0 | 0.00 | 0.00 | 0.00 | 53 | 1016.6 |
| 20260509201003 | 15 | 90 | 3.2 | 6.4 | 0.00 | 0.00 | 0.00 | 52 | 1016.4 |
| 20260509200003 | 15 | 93 | 3.2 | 9.7 | 0.00 | 0.00 | 0.00 | 52 | 1016.3 |
| 20260509195004 | 15 | 81 | 3.2 | 9.7 | 0.00 | 0.00 | 0.00 | 51 | 1016.3 |
| 20260509194003 | 15 | 80 | 3.2 | 11.3 | 0.00 | 0.00 | 0.00 | 51 | 1016.1 |
| 20260509193003 | 16 | 82 | 3.2 | 12.9 | 0.00 | 0.00 | 0.00 | 50 | 1016.0 |
| 20260509192003 | 16 | 102 | 4.8 | 11.3 | 0.00 | 0.00 | 0.00 | 50 | 1015.9 |
| 20260509191003 | 16 | 104 | 6.4 | 17.7 | 0.00 | 0.00 | 0.00 | 50 | 1015.9 |
| 20260509190003 | 16 | 107 | 4.8 | 14.5 | 0.00 | 0.00 | 0.00 | 51 | 1015.9 |
| 20260509185004 | 17 | 108 | 6.4 | 12.9 | 0.00 | 0.00 | 0.00 | 51 | 1015.7 |
| 20260509184003 | 17 | 96 | 6.4 | 17.7 | 0.00 | 0.00 | 0.00 | 51 | 1015.6 |
| 20260509183003 | 17 | 106 | 6.4 | 16.1 | 0.00 | 0.00 | 0.00 | 52 | 1015.6 |
| 20260509182003 | 17 | 101 | 8.0 | 17.7 | 0.00 | 0.00 | 0.00 | 52 | 1015.5 |
| 20260509181004 | 17 | 112 | 9.7 | 19.3 | 0.00 | 0.00 | 0.00 | 52 | 1015.3 |
| 20260509180004 | 18 | 107 | 9.7 | 19.3 | 0.00 | 0.00 | 0.00 | 52 | 1015.4 |
| 20260509174003 | 18 | 108 | 8.0 | 19.3 | 0.00 | 0.00 | 0.00 | 51 | 1015.1 |
| 20260509172003 | 19 | 106 | 6.4 | 14.5 | 0.00 | 0.00 | 0.00 | 48 | 1015.0 |
| 20260509171004 | 20 | 102 | 6.4 | 16.1 | 0.00 | 0.00 | 0.00 | 46 | 1015.2 |
| 20260509170003 | 20 | 84 | 6.4 | 12.9 | 0.00 | 0.00 | 0.00 | 46 | 1015.2 |
| 20260509165003 | 20 | 78 | 6.4 | 16.1 | 0.00 | 0.00 | 0.00 | 46 | 1015.2 |
| 20260509164003 | 20 | 67 | 6.4 | 17.7 | 0.00 | 0.00 | 0.00 | 45 | 1015.1 |
| 20260509163002 | 20 | 72 | 8.0 | 17.7 | 0.00 | 0.00 | 0.00 | 45 | 1015.1 |
| 20260509162004 | 20 | 69 | 4.8 | 14.5 | 0.00 | 0.00 | 0.00 | 45 | 1015.2 |
| 20260509161004 | 19 | 77 | 6.4 | 14.5 | 0.00 | 0.00 | 0.00 | 46 | 1015.2 |
| 20260509160003 | 19 | 88 | 8.0 | 17.7 | 0.00 | 0.00 | 0.00 | 47 | 1015.3 |
| 20260509155002 | 20 | 84 | 4.8 | 19.3 | 0.00 | 0.00 | 0.00 | 45 | 1015.4 |
| 20260509154003 | 20 | 79 | 4.8 | 11.3 | 0.00 | 0.00 | 0.00 | 46 | 1015.4 |
| 20260509153004 | 20 | 72 | 8.0 | 14.5 | 0.00 | 0.00 | 0.00 | 44 | 1015.6 |
| 20260509152003 | 20 | 80 | 6.4 | 16.1 | 0.00 | 0.00 | 0.00 | 44 | 1015.6 |
| 20260509151003 | 20 | 90 | 6.4 | 16.1 | 0.00 | 0.00 | 0.00 | 44 | 1015.4 |
| 20260509150003 | 20 | 83 | 4.8 | 14.5 | 0.00 | 0.00 | 0.00 | 46 | 1015.4 |
| 20260509144003 | 20 | 76 | 6.4 | 16.1 | 0.00 | 0.00 | 0.00 | 45 | 1015.4 |
| 20260509143003 | 20 | 63 | 4.8 | 14.5 | 0.00 | 0.00 | 0.00 | 45 | 1015.2 |
| 20260509142003 | 20 | 66 | 8.0 | 14.5 | 0.00 | 0.00 | 0.00 | 44 | 1015.2 |
| 20260509141003 | 20 | 104 | 6.4 | 20.9 | 0.00 | 0.00 | 0.00 | 44 | 1015.3 |